Wind_Speed
43 41 39 39 38 37 36 34 32 31 30 28 27 27 26 26 26 25 25 24 24 24 24 24 23 22 22 22 22 22 22 21 21 20 20 20 20 19 18 17 17 17 16 15 15 14 14 14 14 13 13 13 14 14 14 14 14 14 14 14 15 15 16 18 22 27 27 25 23 22 22 22 22 20 20 21 21 20 21 22 23 24 25 26 26
44 42 40 39 38 36 35 35 33 33 32 30 28 27 26 26 26 25 24 23 22 23 23 23 24 23 23 23 23 23 23 23 22 22 22 22 21 21 20 19 18 18 17 17 16 16 15 15 15 14 14 14 15 15 15 15 16 16 16 16 17 17 17 19 22 26 29 28 26 24 22 22 23 22 22 22 23 23 24 24 24 25 25 26 27
44 43 41 39 37 36 35 35 34 33 33 32 30 28 27 26 26 26 25 24 23 23 23 23 23 24 24 24 24 24 24 24 24 24 23 23 23 22 21 20 19 19 18 18 17 17 17 16 16 15 15 15 15 15 16 16 17 18 18 18 19 19 20 21 22 26 29 30 29 27 25 25 25 24 24 25 25 25 26 26 26 27 27 27 28
45 43 42 40 38 37 36 35 34 34 34 33 32 30 28 27 26 25 24 24 24 24 23 23 24 25 26 26 26 26 26 25 25 25 24 24 24 23 23 22 21 20 19 18 18 17 17 17 16 16 17 17 17 17 17 17 18 18 19 20 20 21 22 23 24 26 29 31 31 29 27 28 28 27 27 28 28 28 28 27 28 29 29 29 30
45 44 43 42 40 39 37 36 35 34 34 34 32 31 30 29 27 25 25 25 24 24 24 23 24 26 27 28 28 28 27 26 26 25 25 25 25 24 24 23 22 21 20 19 19 18 18 18 17 17 18 18 18 18 18 18 19 20 20 20 21 22 22 23 25 26 29 32 33 31 30 30 30 29 28 29 30 31 30 29 29 29 29 29 30
46 45 44 44 43 41 39 37 36 34 34 33 33 31 31 30 28 26 26 25 25 25 24 24 24 26 27 28 28 29 28 27 27 26 26 26 26 26 25 25 24 23 21 21 20 20 19 19 19 19 19 19 18 19 19 20 21 21 21 21 21 22 23 24 25 26 29 31 33 33 33 32 31 30 29 28 29 31 31 31 30 29 28 28 29
47 46 45 46 45 42 40 38 35 34 34 33 33 31 31 31 29 27 26 26 26 25 25 25 25 26 27 27 28 29 29 29 29 28 27 27 27 27 27 26 26 25 24 23 22 22 22 21 21 21 20 20 20 20 21 22 23 23 22 22 22 23 24 25 26 28 30 31 32 34 34 34 33 32 29 28 28 28 28 29 30 28 27 29 31
48 46 46 47 46 43 40 37 35 34 34 33 32 31 31 30 29 28 27 27 26 26 25 25 26 26 27 28 28 29 30 31 30 30 29 28 28 28 28 28 28 27 26 25 25 25 24 23 23 23 22 22 22 22 23 23 23 24 23 23 23 24 24 25 27 28 30 31 32 33 33 33 32 31 30 28 27 27 27 28 29 29 29 30 32
48 47 47 48 46 43 40 37 36 35 34 33 32 31 31 30 29 28 28 27 26 25 25 26 26 27 27 28 28 29 30 32 32 32 31 30 29 29 29 30 29 29 28 27 27 26 26 25 25 25 24 23 23 23 23 23 23 23 23 22 23 24 24 25 26 28 29 31 31 29 27 25 24 25 27 28 27 27 28 30 30 31 33 35 35
48 47 48 47 44 42 40 38 37 37 35 34 33 32 31 30 30 29 28 27 26 26 26 26 27 27 27 28 29 29 31 32 33 33 31 30 30 30 30 30 30 30 29 29 28 28 27 27 26 26 25 24 23 23 23 23 23 23 22 21 21 23 24 25 26 27 29 29 27 24 22 21 19 19 24 30 31 30 32 34 34 35 38 40 41
48 48 47 45 43 41 40 40 39 38 37 35 34 33 32 31 31 30 29 28 28 27 27 27 27 27 28 29 29 30 31 32 32 32 31 30 30 30 30 30 30 31 30 30 30 29 28 28 27 27 27 25 25 24 24 23 23 22 22 20 20 21 22 24 25 26 28 28 24 20 19 22 23 20 21 28 31 31 34 37 39 40 41 43 44
48 48 47 44 42 41 41 41 40 39 37 36 34 32 32 32 32 31 30 29 29 29 28 28 28 28 29 30 30 31 32 32 31 30 30 30 29 29 29 30 30 31 31 31 30 29 29 28 27 28 27 26 25 24 24 23 22 22 21 20 20 20 21 23 24 25 27 29 28 24 24 28 29 25 23 26 30 31 33 36 38 40 42 43 44
48 48 45 43 42 42 41 40 39 38 37 35 33 32 33 33 33 32 31 31 31 30 29 29 29 29 29 30 31 32 33 32 31 30 30 29 29 28 29 29 30 30 30 30 30 29 29 28 28 27 26 26 25 24 24 24 22 21 20 20 20 20 21 22 23 24 26 28 31 31 31 31 33 32 28 29 32 32 31 34 36 38 41 43 43
48 46 45 43 42 41 40 39 39 37 35 35 34 33 34 34 33 33 32 32 32 31 30 30 30 30 30 31 32 32 32 32 31 30 29 29 28 28 28 29 29 30 30 29 29 29 28 28 27 27 26 26 25 24 23 22 21 20 20 20 20 20 21 22 22 23 25 27 30 33 32 31 34 35 32 30 31 31 31 35 37 38 40 41 42
47 46 44 43 41 40 40 39 38 36 35 35 35 35 35 34 34 33 33 33 32 31 31 31 31 30 30 31 31 32 32 32 30 29 29 28 28 28 28 28 28 29 29 29 29 28 28 28 27 27 26 26 25 23 21 20 19 19 19 20 21 21 22 24 24 24 24 26 29 31 32 32 34 35 35 33 31 31 33 36 38 39 42 44 45
46 45 44 43 41 40 40 38 37 36 35 35 35 35 35 34 33 33 33 33 32 31 31 31 31 30 30 30 31 32 33 32 30 29 28 28 27 27 28 28 28 29 29 29 29 28 28 28 27 27 26 25 24 21 19 18 18 19 20 21 21 23 24 25 25 25 26 28 29 30 32 34 35 36 35 33 32 34 35 36 37 38 40 43 46
46 45 44 43 42 40 39 38 37 36 36 36 36 36 35 34 33 33 33 33 33 32 31 31 31 31 30 31 32 33 33 32 31 30 29 28 28 28 29 29 29 29 29 29 29 28 28 28 27 26 26 25 23 19 17 17 18 19 20 21 22 24 25 24 25 27 28 28 28 30 32 34 33 32 31 30 30 30 30 32 32 31 32 37 41
45 44 43 43 41 40 38 37 36 36 36 36 35 35 34 34 33 33 33 33 33 33 31 31 31 31 31 32 32 32 32 32 31 30 29 29 29 29 30 29 29 29 29 28 28 28 28 28 26 25 25 24 21 17 15 17 19 20 20 21 23 24 24 24 26 27 27 26 27 29 31 30 29 30 31 31 30 28 28 31 31 26 25 28 33
43 42 42 41 40 38 37 36 36 35 35 35 34 34 33 33 33 33 33 33 33 33 32 32 32 32 32 32 31 31 31 31 31 30 29 29 29 29 30 29 29 30 29 28 28 28 28 27 25 24 24 22 19 17 16 18 20 19 19 21 23 23 22 22 25 26 26 27 27 27 28 28 29 32 34 35 34 34 34 36 34 29 27 30 33
40 39 39 38 37 36 35 35 35 35 35 33 32 32 31 31 32 33 33 33 33 33 33 32 32 31 31 31 31 31 31 31 31 31 30 29 29 29 29 29 30 29 28 27 27 27 26 25 24 22 21 20 19 17 17 18 18 19 19 21 22 22 21 22 24 25 26 27 27 27 28 30 32 34 35 36 36 36 36 37 36 34 34 37 39
37 37 36 36 35 34 34 34 34 33 32 30 30 31 30 31 32 32 32 32 32 32 32 31 31 31 30 30 30 31 31 30 30 30 29 29 28 28 28 29 28 27 27 26 26 25 24 23 22 20 19 19 18 17 16 17 18 19 19 19 20 21 22 23 24 24 24 24 26 28 30 31 32 33 33 34 34 34 34 34 34 34 35 37 40
35 35 35 35 34 34 33 33 32 32 31 30 31 31 30 30 31 31 30 31 31 31 30 30 30 30 30 29 30 30 29 28 28 28 27 26 26 27 27 27 26 25 25 25 24 24 22 21 20 19 18 17 17 16 16 16 18 19 19 18 19 20 22 23 23 22 22 23 25 28 29 30 31 31 32 33 32 31 31 31 31 32 32 33 35
34 34 34 34 33 32 32 31 30 30 30 30 29 29 29 29 30 30 29 30 30 29 29 29 30 30 30 30 29 29 28 26 26 25 24 23 24 24 24 24 23 23 23 24 23 22 20 19 19 18 17 16 16 16 16 17 17 18 17 18 19 21 21 20 20 20 21 22 24 26 26 27 29 30 30 30 28 28 28 29 29 29 30 32 33
32 32 32 32 31 31 30 28 28 29 29 28 27 28 29 29 29 29 29 29 30 30 30 29 30 30 30 28 27 26 26 25 23 23 22 21 22 22 22 22 21 22 23 23 21 20 19 19 18 17 16 16 16 16 16 16 16 17 17 19 21 21 19 17 17 18 19 20 21 23 24 25 26 26 26 26 25 26 27 27 28 29 31 34 34
31 31 31 30 29 28 28 27 27 27 27 26 27 28 29 29 30 30 30 30 30 30 29 29 30 30 29 27 26 25 24 23 22 22 21 21 21 21 21 21 21 21 21 20 19 19 19 18 17 17 17 17 17 16 16 16 16 17 19 20 19 17 15 15 15 16 17 18 20 21 21 22 22 22 23 23 23 25 26 28 30 32 33 35 35
28 28 28 27 26 26 26 26 26 25 25 25 25 26 27 28 29 29 29 30 30 30 29 29 29 28 27 27 26 25 24 23 22 21 21 20 21 21 21 21 21 20 20 20 20 20 19 19 18 18 17 17 17 17 17 17 18 19 19 18 15 13 13 13 13 14 15 17 18 18 18 19 19 20 21 22 23 25 28 31 33 34 35 37 38
26 26 25 25 24 25 24 24 24 24 25 25 25 25 27 28 29 30 30 31 31 31 30 30 29 27 26 26 26 24 24 24 23 22 21 21 20 20 20 20 20 21 22 22 21 20 19 19 19 19 19 19 19 18 19 19 19 19 16 13 11 11 11 11 12 13 15 15 16 16 16 17 18 19 20 21 23 26 29 32 34 36 37 38 39
24 24 23 23 24 24 24 24 23 24 24 25 25 26 27 28 29 30 30 30 30 30 29 28 28 26 25 25 25 25 25 25 23 21 20 19 19 19 20 20 21 22 22 21 20 20 20 20 20 20 20 21 21 20 20 20 18 15 11 8 8 10 10 11 11 13 14 14 14 15 15 16 18 19 19 21 24 26 29 32 34 36 37 39 40
24 23 22 23 24 24 24 24 24 24 25 25 26 26 26 28 28 29 28 27 27 27 27 26 26 24 23 24 24 25 25 23 19 17 16 17 18 18 18 19 19 19 19 20 20 20 20 21 22 22 22 22 22 21 19 16 13 10 8 7 8 9 9 10 11 11 12 12 13 13 15 16 17 18 20 21 23 26 29 32 34 36 37 39 40
24 24 24 25 25 25 25 25 25 26 26 26 27 26 27 28 28 29 28 27 25 25 25 25 23 22 23 24 24 23 22 19 15 14 14 15 16 16 16 16 17 17 18 19 20 21 22 22 22 22 23 23 20 18 15 12 10 9 8 8 9 9 9 9 10 10 10 11 11 12 14 15 17 18 19 21 22 25 28 31 33 35 37 38 39
25 25 25 25 25 25 25 26 26 27 27 27 27 27 27 28 28 28 28 26 25 25 25 25 23 22 23 23 22 21 19 17 15 15 15 15 15 16 17 18 18 18 19 19 20 21 22 22 23 23 22 19 17 14 12 10 9 10 10 10 9 9 9 9 8 8 8 9 10 11 13 15 16 17 18 20 22 25 27 29 31 33 35 36 38
26 26 26 25 25 25 25 26 27 28 29 29 29 29 28 28 29 28 27 26 25 25 25 25 24 24 23 23 21 20 17 15 16 17 18 18 19 19 19 19 19 19 19 20 21 22 22 23 23 21 18 17 16 14 11 11 12 12 11 11 10 10 9 8 7 6 6 7 9 10 12 14 15 16 18 20 22 24 26 28 30 32 32 33 34
25 25 24 24 25 26 27 27 27 28 29 30 30 30 29 29 29 28 27 26 25 25 25 25 24 24 23 22 21 19 17 16 17 19 19 20 20 20 19 19 19 19 20 21 22 22 22 22 20 18 18 18 16 13 13 14 14 13 12 11 11 9 8 7 6 5 4 6 8 10 12 14 14 15 17 19 22 24 25 27 28 29 30 30 32
22 22 21 21 22 24 25 26 26 27 27 27 27 28 28 27 27 26 25 25 25 25 24 24 24 23 23 22 21 19 19 19 20 21 21 20 20 20 20 20 20 21 22 23 24 23 21 21 20 19 18 16 14 14 15 15 14 13 12 12 10 9 8 7 5 4 3 5 7 9 11 12 13 14 15 18 20 22 24 26 27 27 27 28 30
20 20 19 19 20 20 21 22 23 23 24 24 23 23 23 24 24 23 23 23 24 24 23 23 23 22 22 21 20 20 21 21 21 21 21 21 20 20 20 20 21 22 23 23 23 23 21 19 18 16 14 13 14 15 16 15 14 14 12 11 9 8 7 5 4 4 3 5 7 8 9 11 12 13 14 16 18 19 22 23 24 24 25 27 29
16 16 17 18 17 17 17 17 18 18 19 19 19 19 20 20 20 21 21 22 22 22 21 20 21 21 20 20 20 20 21 22 22 22 21 21 20 20 20 20 21 23 24 24 22 19 16 15 14 13 13 14 15 15 15 15 14 13 11 10 9 8 6 5 4 4 4 5 6 7 8 9 10 12 13 14 15 18 20 21 21 22 23 25 27
13 14 15 16 16 16 15 15 14 14 14 14 15 16 17 17 18 19 19 19 19 18 18 18 18 19 19 20 21 22 23 23 22 21 20 19 19 19 20 21 22 23 23 21 18 16 14 14 14 15 15 16 16 15 15 15 13 11 10 9 8 7 6 5 5 5 6 6 7 6 6 7 8 10 11 12 13 15 17 19 19 19 21 23 26
12 13 14 14 14 14 14 13 12 12 12 12 13 14 14 15 16 17 16 15 15 15 16 16 17 17 19 21 22 23 23 22 20 19 18 19 19 20 20 20 20 19 18 17 16 16 16 16 15 15 15 16 16 15 14 13 12 11 9 8 7 6 5 4 5 6 6 6 6 6 5 5 6 7 9 10 11 13 15 16 17 17 19 22 24
11 12 13 13 12 12 11 11 10 10 9 10 11 12 12 13 13 13 13 14 15 16 17 18 18 18 20 21 21 19 18 18 18 19 18 18 18 18 18 19 19 19 17 16 16 16 16 15 15 15 15 15 14 13 12 12 11 10 9 7 6 5 4 4 5 6 6 5 5 5 4 4 4 5 6 7 8 10 13 14 14 15 17 19 21
11 12 12 11 11 11 10 9 9 8 6 7 8 9 11 13 15 17 18 19 20 21 20 19 18 17 17 18 17 15 15 16 18 20 20 20 19 18 18 19 20 20 18 16 15 15 14 14 14 13 13 13 12 11 11 10 10 8 7 6 5 4 4 4 4 4 4 4 3 3 3 3 3 3 4 5 6 8 11 11 12 13 14 16 17
10 11 11 11 11 11 10 9 9 8 6 6 6 7 10 16 19 20 21 23 23 22 21 19 18 19 20 18 16 14 15 18 21 22 22 22 21 20 19 20 19 18 16 15 14 14 13 13 12 12 11 11 11 10 10 10 9 8 6 5 4 4 3 3 3 2 3 2 2 2 2 2 3 3 3 4 5 7 9 9 10 10 11 12 14
9 9 9 10 10 10 10 10 10 9 8 8 9 10 13 17 18 18 19 21 22 21 21 21 21 21 20 20 20 19 19 20 22 21 21 20 20 18 18 18 17 16 15 15 14 14 13 12 12 12 11 11 11 10 10 10 9 7 6 4 3 2 2 2 2 2 2 2 1 1 2 2 3 3 4 4 5 7 8 8 8 8 9 10 11
9 8 8 8 9 9 8 8 8 8 9 10 12 13 14 16 17 17 17 19 20 21 22 23 24 24 22 21 20 19 20 21 21 20 19 19 19 18 17 17 17 16 16 15 15 15 14 13 13 13 13 12 12 11 10 9 8 7 5 4 3 2 2 2 2 2 2 2 3 3 3 3 4 4 5 6 6 7 8 8 8 8 7 8 9
8 7 7 8 8 8 7 6 5 7 9 10 11 12 12 14 15 17 18 19 21 23 25 26 27 25 23 21 19 18 19 19 18 18 19 20 20 19 19 18 18 17 16 15 14 14 14 13 13 13 13 12 12 11 10 9 7 6 5 4 3 2 2 3 3 3 3 4 4 5 5 6 6 6 6 7 7 8 8 8 9 8 7 8 8
6 6 6 7 8 8 7 5 5 6 8 10 12 13 14 15 17 20 22 23 24 25 25 25 24 23 22 20 19 18 18 18 19 20 21 20 19 19 18 17 16 15 14 14 13 13 13 13 13 12 12 11 11 10 9 8 7 6 5 4 4 3 3 4 4 4 5 5 5 6 6 7 7 8 8 8 8 9 9 9 9 8 8 8 8
3 4 6 7 8 8 7 6 6 7 9 12 14 17 19 20 21 23 25 26 26 26 25 24 23 22 21 20 20 20 20 20 19 19 18 16 15 15 14 14 14 13 12 12 13 13 13 12 11 10 10 9 9 8 8 7 7 6 5 5 5 5 5 5 5 5 6 6 6 6 7 7 7 8 8 8 8 9 9 9 9 9 9 9 9
1 4 7 8 9 9 9 9 10 11 13 15 17 20 22 24 25 24 25 25 25 25 25 25 24 23 22 21 21 21 20 20 19 17 16 15 14 13 12 11 12 11 11 11 12 11 10 10 9 8 8 8 7 7 6 6 6 6 6 6 6 6 7 7 7 8 8 8 8 8 8 7 7 8 8 8 8 8 9 9 9 9 10 10 11
4 6 9 11 12 13 14 14 15 16 18 19 21 23 24 25 25 24 24 23 23 23 24 23 23 22 22 21 21 21 21 20 19 17 16 15 14 14 13 12 12 11 11 10 10 9 8 8 7 7 6 6 5 5 4 5 5 6 6 7 7 8 9 9 10 10 10 10 10 9 8 8 8 8 8 8 8 8 8 9 9 10 11 12 13
8 9 11 12 14 15 17 18 19 20 22 23 25 26 28 28 28 27 26 24 23 22 22 21 21 22 22 23 23 22 20 19 18 18 17 16 15 14 14 12 11 11 10 9 9 9 9 8 8 7 6 6 6 6 6 7 7 8 8 9 9 10 11 12 12 12 11 11 11 10 9 8 8 8 8 9 9 9 9 9 9 9 10 11 13
12 12 13 14 14 15 17 19 21 23 25 27 29 30 31 30 30 29 28 27 26 25 25 25 24 24 24 23 22 20 18 18 18 18 17 16 16 15 13 12 11 10 9 8 8 8 8 8 7 7 7 8 8 9 9 9 10 10 11 11 11 11 12 12 12 12 12 12 12 11 10 10 10 10 10 11 11 11 11 11 11 11 10 10 11
15 15 16 17 18 18 19 20 22 25 28 30 31 32 32 32 31 30 29 28 28 29 29 28 27 25 24 24 23 22 21 20 20 19 18 17 17 16 14 12 10 9 7 6 6 6 7 7 7 7 7 7 8 9 9 10 10 11 12 12 12 12 12 12 12 12 12 12 12 12 11 11 11 12 13 13 13 13 13 13 14 13 13 12 11
Wind_Direction
224 223 223 223 224 224 225 227 228 229 231 232 232 232 232 232 232 233 234 234 235 236 236 237 236 236 236 234 233 233 235 238 240 243 245 246 246 246 246 246 249 253 258 261 262 265 268 270 272 275 276 279 282 284 287 288 289 290 293 297 299 300 299 294 294 299 303 306 309 311 311 311 311 312 313 312 311 309 305 303 303 302 300 299 298
224 223 222 223 223 223 225 226 227 229 230 231 231 231 232 232 232 232 233 233 233 235 236 237 237 237 238 237 235 234 235 237 239 241 243 245 247 248 248 248 249 252 255 258 262 265 268 270 272 275 275 277 279 282 285 287 288 291 293 295 296 298 299 297 296 298 301 304 307 308 309 309 308 309 310 309 309 308 305 303 303 301 299 299 298
223 222 222 222 221 222 223 225 226 227 229 231 231 232 232 232 232 232 233 233 234 235 237 239 239 238 238 239 237 235 235 235 237 238 240 242 245 247 248 249 250 253 255 257 261 263 266 268 271 275 276 277 278 280 282 283 286 289 293 294 296 296 297 296 295 295 298 301 303 305 308 307 306 307 308 308 307 307 306 305 305 304 303 303 302
223 222 221 221 221 222 222 223 225 226 228 230 231 232 232 232 232 232 232 234 235 236 238 240 241 240 239 239 237 235 234 234 235 236 237 239 242 244 246 248 250 252 254 256 258 260 263 266 269 273 276 278 279 280 280 283 285 287 289 291 292 294 295 295 294 295 296 297 299 302 304 304 305 306 308 308 308 307 306 306 307 307 308 308 307
223 222 222 222 222 223 222 223 224 226 227 229 230 231 232 233 233 232 233 235 236 237 238 240 241 240 239 238 236 234 233 233 234 235 235 237 239 242 244 246 248 250 252 255 257 258 260 263 266 271 274 276 278 280 281 283 284 285 286 288 289 291 292 292 293 294 294 295 298 300 301 301 303 304 306 308 308 307 307 307 308 309 310 310 309
222 222 222 222 223 223 222 223 223 224 226 227 229 230 231 233 233 232 233 235 236 238 239 239 240 240 238 237 235 234 233 233 234 234 235 236 237 240 243 245 247 249 251 254 256 258 260 263 266 268 271 274 276 278 280 282 283 285 286 287 289 290 291 292 293 293 294 295 297 298 300 301 302 303 305 305 306 308 309 311 313 314 313 309 304
222 222 222 223 223 223 222 222 222 223 225 226 228 229 230 232 233 233 233 234 236 238 239 239 239 239 238 237 236 234 233 233 234 234 234 235 236 238 241 243 246 248 251 254 256 259 260 262 265 268 270 272 276 278 280 282 284 286 287 289 291 292 293 294 295 295 296 296 297 298 299 301 302 302 305 307 309 313 316 317 317 315 311 305 302
221 221 221 222 223 222 221 221 221 223 225 226 227 228 230 232 232 233 234 235 236 237 238 239 239 239 238 238 237 236 235 234 234 234 233 234 236 238 240 242 245 248 251 253 256 258 261 263 265 267 269 271 275 278 279 282 284 286 288 290 292 294 295 296 296 297 297 298 299 299 299 301 302 303 308 313 316 320 323 319 314 310 306 305 303
221 220 221 222 222 221 220 220 221 223 225 225 226 228 229 231 232 233 234 234 235 236 237 238 239 239 238 238 237 237 236 235 235 234 234 235 236 238 240 242 244 247 250 253 255 258 261 264 266 267 268 270 273 275 277 279 282 284 287 290 293 295 295 296 296 296 297 298 299 299 299 300 302 305 312 320 323 324 321 315 309 307 307 305 299
220 220 220 221 221 221 220 221 222 223 225 225 226 228 229 230 231 232 233 233 234 235 235 237 239 239 238 239 239 238 238 237 236 236 236 237 238 240 241 242 244 246 249 252 255 258 260 263 265 266 268 269 271 273 275 277 279 281 283 287 292 294 295 295 295 296 297 298 297 298 297 298 302 304 311 322 326 321 317 314 310 308 309 306 300
219 219 220 220 220 221 221 222 223 224 225 226 227 228 229 230 231 231 232 232 232 233 233 235 237 238 239 239 239 239 239 238 237 238 238 239 240 242 244 245 246 247 250 252 255 257 260 262 264 266 267 269 271 273 274 275 277 278 279 282 284 287 289 291 293 295 297 297 296 295 293 297 305 304 307 321 324 316 313 313 310 308 308 307 304
218 218 220 220 220 220 221 222 223 224 225 226 227 228 229 231 231 231 231 231 232 232 232 233 234 236 238 239 240 240 240 239 239 239 240 240 241 243 245 247 249 250 252 254 256 258 260 262 264 266 267 269 271 273 273 273 274 275 276 278 278 279 280 283 289 292 294 296 295 294 295 301 307 305 306 315 315 309 309 307 306 306 307 307 307
217 218 219 220 220 220 221 223 224 225 226 227 228 229 230 231 231 232 232 232 233 232 232 233 233 234 237 239 240 241 241 241 240 240 240 241 241 243 245 247 250 252 253 255 256 258 260 262 264 265 266 268 269 271 272 273 274 274 274 274 273 273 273 278 286 288 291 295 296 298 302 305 306 306 308 313 309 304 305 304 304 307 306 306 306
216 218 219 220 220 221 221 223 224 225 226 227 228 229 230 231 232 233 234 234 234 233 233 234 234 235 236 238 240 241 242 242 241 240 241 241 241 242 244 246 249 252 253 254 256 258 259 262 264 264 265 267 268 269 270 272 274 275 277 277 274 272 273 275 279 284 289 295 297 300 303 305 305 306 311 315 306 299 304 308 308 308 305 302 302
216 217 218 219 220 221 221 222 224 225 226 227 228 229 230 232 232 234 235 236 235 235 235 236 237 236 236 238 240 241 241 242 242 241 241 241 241 241 242 244 247 250 252 253 255 257 259 261 263 263 265 266 267 268 269 270 274 277 279 280 280 281 282 280 281 287 292 295 298 301 301 301 304 309 316 320 311 303 309 311 308 306 303 300 299
217 217 218 219 220 220 221 221 222 223 225 226 227 229 230 231 232 233 235 237 238 238 238 239 240 239 238 239 241 241 242 242 242 241 241 240 241 241 242 244 246 248 250 252 253 255 257 259 261 262 263 264 264 264 266 268 273 277 277 279 283 287 288 287 289 293 295 298 300 299 298 301 307 313 317 319 314 311 309 305 301 302 301 299 299
216 218 218 219 220 220 221 221 221 222 223 225 226 228 229 230 231 232 234 236 238 239 239 240 241 240 240 241 241 241 241 242 241 241 241 240 241 242 243 244 246 247 249 251 253 255 256 257 259 260 261 261 261 261 262 266 270 272 275 282 286 288 289 290 290 291 294 297 298 297 298 303 308 310 313 312 310 308 302 299 304 306 299 297 299
217 219 219 220 220 221 221 221 221 222 223 225 226 228 229 230 231 233 234 236 238 240 241 241 242 242 242 242 241 241 242 243 242 240 241 241 242 243 244 246 247 248 248 250 251 253 254 254 255 257 258 258 259 257 257 262 266 270 276 284 286 288 291 293 290 289 293 296 296 297 301 306 308 309 312 313 313 313 312 313 317 312 297 293 298
218 220 220 221 222 222 223 223 223 224 225 226 228 229 231 232 234 235 237 238 240 242 243 244 244 245 244 244 244 243 244 245 243 241 240 241 241 243 245 246 247 247 247 248 249 250 251 252 252 253 254 254 254 251 253 260 266 272 278 283 285 288 292 293 291 291 293 295 297 301 307 312 315 316 317 318 320 322 323 322 321 315 305 302 303
218 220 221 222 224 224 225 225 225 226 227 229 230 232 233 235 236 238 239 240 241 243 244 245 246 247 247 247 247 246 245 245 244 241 239 240 240 241 243 244 245 245 245 245 247 248 249 250 249 248 247 248 247 247 252 259 266 272 276 280 285 289 291 290 289 289 293 299 304 310 314 317 317 317 317 318 320 320 319 316 314 314 312 310 310
218 220 221 223 225 225 226 227 227 228 229 231 232 233 234 235 237 238 239 240 241 242 243 244 246 247 247 247 247 247 246 245 244 242 240 239 239 239 240 241 241 242 243 243 245 247 246 245 245 242 240 240 242 244 249 256 263 268 272 277 284 288 289 289 288 288 295 304 309 312 314 313 313 313 314 315 315 315 313 310 311 314 316 315 315
218 220 221 223 224 225 226 227 227 228 230 231 232 233 234 235 237 238 239 240 241 241 242 244 245 246 247 247 247 247 246 244 243 242 240 237 236 236 237 238 237 239 241 241 241 242 242 240 240 238 237 239 240 242 246 251 257 264 269 275 280 284 288 289 290 292 298 304 308 310 310 309 310 312 313 313 314 314 313 314 317 320 322 322 322
218 220 221 222 223 224 226 227 227 228 230 231 231 233 234 235 236 237 238 239 240 242 243 244 245 246 247 248 247 246 243 241 240 240 238 234 232 232 233 233 232 233 237 237 237 238 238 237 235 235 236 240 243 244 247 251 256 264 270 275 279 283 287 288 290 294 299 304 307 308 308 309 311 312 312 314 317 317 318 321 324 326 327 327 326
217 220 221 222 224 224 226 228 228 229 231 231 231 233 234 235 236 238 238 239 240 241 242 243 244 245 246 246 245 243 241 239 237 237 235 232 230 229 229 227 226 228 232 234 234 236 236 235 234 234 237 243 248 250 253 257 262 268 273 278 282 283 284 285 289 295 299 303 306 307 308 310 312 312 315 318 321 322 324 328 332 333 333 332 333
216 218 220 221 223 225 227 228 229 231 232 233 233 233 234 236 237 238 239 239 239 241 242 243 244 245 245 245 245 244 243 241 239 236 233 230 229 228 225 223 223 225 229 231 231 233 235 235 236 239 242 248 252 254 258 263 267 272 277 281 281 281 282 286 292 297 301 303 305 307 310 312 313 317 322 326 329 332 336 339 341 341 341 341 344
213 215 218 220 221 223 226 227 228 230 232 233 234 235 237 238 238 239 239 239 239 240 242 243 244 244 244 245 246 246 244 243 241 238 234 231 229 226 223 222 221 222 226 228 228 229 232 235 238 242 246 250 253 256 260 264 268 274 277 277 275 279 286 290 293 297 300 302 305 309 312 314 319 326 332 337 343 347 349 349 350 352 354 354 355
210 212 214 216 217 219 221 223 226 228 229 231 233 234 237 239 239 240 240 239 239 240 240 241 241 241 243 245 246 246 246 245 243 240 236 232 229 226 223 221 220 220 223 226 226 227 230 235 239 243 247 250 252 254 258 262 267 270 270 269 274 283 287 288 291 296 300 303 307 311 314 320 328 335 341 348 353 354 355 357 0 4 6 4 2
205 207 209 211 213 216 217 219 222 225 227 229 230 231 234 237 238 240 241 241 241 241 241 242 243 243 245 247 247 247 247 246 243 241 237 233 231 227 223 221 220 220 222 225 226 227 230 234 239 243 246 249 251 254 259 264 266 262 256 261 275 278 278 284 291 297 301 304 308 313 321 330 337 342 348 354 356 357 1 7 11 13 13 11 9
197 200 203 207 211 214 216 217 219 222 225 228 228 229 231 235 238 241 242 243 243 244 245 247 247 248 249 249 248 249 250 249 246 244 242 238 235 230 226 224 222 222 222 224 226 228 232 236 240 243 245 249 254 259 261 260 253 244 240 252 263 267 273 284 292 296 301 306 313 323 334 340 343 347 353 357 359 3 9 16 19 20 19 18 16
193 194 198 202 206 209 212 214 217 220 222 224 226 227 230 233 237 240 241 242 243 244 246 247 247 249 251 250 250 251 252 251 245 239 237 234 231 228 225 223 221 221 221 224 226 229 233 237 240 243 248 253 257 255 247 237 228 227 234 243 250 260 270 279 287 295 301 312 325 335 343 346 348 355 359 1 5 12 18 21 23 23 22 22 23
193 194 197 201 202 203 207 210 212 215 219 221 223 226 229 232 235 238 240 241 242 243 245 246 245 246 247 248 249 249 250 245 233 223 219 216 214 215 216 215 215 215 215 219 225 230 233 237 241 244 247 247 242 233 224 220 220 223 228 234 242 253 262 271 282 291 304 325 337 343 349 352 355 2 5 5 11 20 24 25 26 26 26 26 25
198 199 201 203 204 205 207 210 210 213 216 219 222 224 227 230 233 236 238 240 241 242 243 243 242 242 243 245 247 247 244 235 222 215 212 210 209 211 213 213 214 213 213 216 223 229 232 235 239 240 233 223 220 218 216 215 216 216 219 228 238 248 256 265 275 286 310 338 344 348 354 358 3 9 10 11 17 23 25 27 26 26 27 27 25
198 200 201 203 206 208 209 211 212 214 216 219 222 223 225 228 231 233 235 236 238 240 240 239 238 238 238 240 242 240 233 224 217 214 213 213 213 212 211 211 212 213 214 217 221 226 230 232 230 223 214 211 212 212 209 208 209 212 216 225 234 242 249 257 269 285 321 342 345 351 357 2 10 16 15 16 20 23 25 27 26 24 24 23 21
193 195 197 200 205 209 212 214 216 218 220 222 223 224 225 227 229 231 232 234 235 236 237 236 236 235 235 236 235 230 223 218 217 216 215 215 215 213 210 210 211 212 214 217 219 221 222 221 215 210 207 207 203 200 202 204 206 210 216 222 229 236 241 250 265 283 317 335 344 353 359 5 14 21 21 20 22 25 26 25 23 21 20 19 17
192 191 194 197 200 203 208 211 214 217 220 222 222 223 223 225 226 228 231 235 237 237 237 235 233 232 232 232 230 226 222 219 219 219 218 217 217 214 209 207 210 213 215 216 215 213 211 211 209 204 200 199 197 199 203 205 207 210 216 222 229 234 235 242 258 274 299 323 335 348 358 6 16 23 23 21 22 26 28 24 19 16 16 14 13
186 188 191 193 194 195 197 199 203 207 211 213 214 216 217 218 221 224 227 231 235 237 238 238 235 231 230 229 227 225 224 223 223 224 222 220 219 217 210 208 211 213 212 209 204 198 194 193 194 194 195 199 201 202 204 206 208 212 217 224 228 230 230 237 256 272 287 306 318 332 347 1 16 25 24 20 21 24 23 20 16 14 13 13 14
177 182 186 188 189 189 189 189 190 193 197 200 205 209 211 213 217 221 225 228 230 232 234 236 236 232 227 224 224 226 228 227 226 226 222 215 211 211 209 207 208 207 202 195 188 179 175 180 188 195 198 199 200 202 204 208 212 216 221 225 226 226 230 243 265 278 287 296 302 312 331 349 10 25 26 21 20 19 17 17 17 14 13 15 17
171 176 180 183 184 183 182 182 181 181 183 188 194 200 204 208 212 216 219 223 227 230 232 234 234 232 228 223 221 222 224 219 211 204 197 189 188 194 197 195 193 192 187 180 176 176 181 186 191 194 195 196 198 202 206 210 215 217 219 221 221 226 239 261 276 286 292 293 292 297 313 335 358 21 26 22 17 12 10 14 17 17 18 21 20
159 166 170 174 177 178 179 179 178 178 181 185 189 193 195 199 205 210 214 218 222 224 227 229 229 228 225 218 212 211 210 200 188 182 176 169 170 178 180 177 177 178 177 175 176 179 183 186 188 191 196 199 201 204 207 209 212 212 211 213 217 229 252 270 281 290 294 287 284 293 304 318 342 10 22 19 11 3 4 10 13 14 19 23 21
142 153 158 163 168 171 173 175 173 172 176 182 189 196 200 200 201 204 208 212 213 214 217 217 211 202 197 194 195 196 191 175 166 164 163 161 164 169 171 171 171 171 171 174 177 179 181 185 189 195 200 202 200 199 199 202 205 205 206 210 219 235 257 271 282 290 286 277 281 298 302 303 318 346 5 6 358 353 358 3 6 10 17 21 20
121 135 143 149 153 155 158 164 166 163 165 175 186 201 211 211 209 207 207 208 206 204 204 199 184 171 165 163 163 164 161 157 157 160 160 159 161 165 168 170 170 169 169 172 175 177 181 185 188 192 196 196 193 192 193 195 199 202 204 209 221 240 261 277 287 287 282 281 293 315 316 306 299 306 323 335 339 343 349 353 356 2 10 15 14
98 112 123 131 137 141 144 153 161 166 176 191 200 202 202 203 203 203 205 205 202 198 194 184 167 152 145 142 139 141 148 155 160 162 161 159 161 166 168 167 167 167 168 170 172 176 179 180 182 186 189 190 189 191 192 194 196 197 199 204 217 237 257 270 271 271 272 274 280 294 313 316 312 313 317 320 324 331 334 337 342 350 358 6 7
78 90 101 111 121 129 135 146 162 175 185 196 203 202 197 194 193 193 194 193 187 179 172 161 146 134 131 133 139 148 158 162 162 161 162 164 166 167 165 162 159 161 165 168 171 174 175 175 177 180 181 183 187 190 191 192 190 188 188 190 193 204 222 232 244 255 261 263 267 271 278 288 298 307 311 313 317 321 323 326 329 332 338 347 351
64 74 86 98 106 111 119 137 167 185 190 189 187 187 188 189 185 179 174 168 160 152 145 140 137 138 142 148 155 162 167 166 163 161 160 159 159 158 156 154 154 157 161 164 167 169 169 170 174 177 179 182 186 188 188 187 184 182 182 184 185 194 206 216 229 244 251 256 262 268 275 283 290 295 299 302 306 310 316 322 325 323 325 333 336
65 76 86 95 99 100 107 129 159 181 190 185 175 171 176 180 176 168 162 158 153 149 145 143 145 149 152 154 158 161 162 162 160 157 155 154 155 155 154 154 155 157 160 162 164 166 167 169 173 177 179 182 184 184 185 185 187 190 195 202 211 220 227 235 244 253 258 261 262 266 272 279 285 291 295 299 301 303 305 311 316 316 318 324 326
71 98 104 106 110 113 123 143 159 169 178 180 173 168 167 168 167 163 159 156 153 151 150 150 152 153 152 152 155 158 159 158 158 157 156 156 157 157 156 156 156 156 159 161 162 162 163 167 170 173 177 180 182 184 187 192 197 206 217 228 238 246 254 261 268 271 273 275 275 275 277 280 284 287 290 292 295 298 300 302 306 308 309 311 313
184 139 133 131 133 136 143 153 160 161 164 166 166 164 162 161 160 159 157 155 154 153 152 151 151 150 150 152 156 157 156 155 154 154 154 154 154 153 150 149 149 152 155 158 158 158 160 163 167 171 176 180 184 189 196 205 216 228 238 248 258 267 274 281 287 289 290 291 292 293 294 297 300 301 301 299 297 296 296 298 300 302 304 305 307
214 176 158 152 150 150 151 154 157 158 158 157 156 156 156 155 155 155 154 155 154 152 150 148 148 148 149 151 151 151 150 150 150 150 149 148 148 146 143 141 144 151 158 161 164 166 167 169 172 175 178 184 193 206 220 232 243 251 259 266 274 282 289 293 297 298 296 295 297 299 302 305 309 312 315 317 316 310 303 298 295 295 296 299 300
205 184 170 163 159 156 155 156 157 157 156 156 156 156 157 157 156 155 154 154 152 150 148 146 145 145 145 144 143 142 142 144 146 147 148 149 151 151 150 150 153 160 168 176 181 184 185 185 187 191 199 211 223 232 240 247 252 255 260 266 273 280 287 293 296 296 295 294 295 298 301 304 308 314 320 324 326 326 322 316 310 304 299 297 296
195 181 171 168 166 164 164 165 164 162 161 162 161 159 159 159 157 156 154 153 151 149 148 146 144 143 143 143 144 145 146 148 149 149 151 154 156 156 157 160 163 167 173 180 185 190 194 198 202 210 221 231 238 242 245 249 251 253 256 262 267 270 273 278 282 284 286 287 288 290 294 298 304 311 316 318 322 326 328 328 329 326 320 313 306
191 181 172 168 166 167 170 171 169 166 165 165 163 160 160 160 159 157 156 155 154 152 151 149 148 150 152 154 155 157 159 160 159 158 159 160 160 160 162 166 170 173 177 185 193 202 208 212 218 228 237 241 246 250 252 255 259 262 266 270 274 275 275 275 276 274 274 276 278 283 289 294 299 304 307 309 312 317 321 323 326 327 326 325 320
Height
1517 1521 1524 1527 1530 1533 1536 1539 1543 1545 1547 1550 1552 1554 1557 1559 1562 1564 1566 1569 1571 1573 1574 1576 1578 1579 1581 1582 1583 1585 1586 1587 1588 1589 1590 1591 1592 1593 1594 1595 1596 1597 1598 1599 1600 1600 1601 1601 1602 1603 1603 1603 1603 1603 1603 1603 1603 1603 1603 1602 1602 1602 1601 1601 1599 1595 1595 1596 1597 1597 1597 1596 1595 1596 1596 1595 1595 1595 1594 1594 1594 1593 1592 1591 1591
1513 1517 1520 1523 1526 1530 1533 1536 1540 1542 1545 1547 1549 1552 1554 1557 1559 1561 1564 1566 1568 1570 1572 1573 1575 1577 1578 1579 1581 1582 1583 1584 1586 1587 1588 1589 1590 1591 1592 1593 1594 1595 1596 1597 1597 1598 1599 1599 1600 1601 1601 1602 1602 1602 1602 1602 1601 1601 1601 1601 1601 1601 1600 1599 1598 1595 1592 1592 1594 1594 1594 1594 1593 1594 1594 1593 1593 1592 1592 1591 1591 1590 1589 1589 1587
1509 1513 1516 1520 1523 1527 1530 1533 1536 1539 1541 1544 1546 1549 1551 1554 1556 1558 1561 1564 1566 1568 1569 1571 1573 1574 1575 1577 1578 1579 1580 1582 1583 1584 1585 1587 1588 1589 1590 1591 1592 1592 1593 1594 1595 1596 1597 1597 1598 1599 1599 1600 1600 1600 1600 1600 1600 1599 1599 1599 1599 1598 1598 1597 1596 1594 1591 1590 1590 1591 1591 1591 1591 1591 1591 1591 1590 1590 1589 1589 1588 1587 1586 1586 1585
1505 1509 1513 1516 1520 1523 1526 1529 1533 1536 1538 1541 1543 1546 1549 1551 1553 1555 1558 1561 1563 1565 1567 1568 1570 1571 1573 1574 1575 1576 1578 1579 1580 1582 1583 1584 1585 1587 1588 1588 1589 1590 1591 1592 1593 1594 1594 1595 1596 1596 1597 1597 1597 1598 1598 1598 1598 1598 1597 1597 1596 1596 1596 1595 1594 1593 1590 1587 1587 1588 1589 1588 1588 1589 1589 1588 1587 1587 1586 1586 1585 1584 1583 1583 1581
1501 1505 1509 1513 1516 1519 1522 1525 1529 1532 1534 1537 1540 1543 1546 1548 1550 1552 1555 1557 1559 1562 1563 1565 1567 1568 1569 1571 1572 1573 1575 1576 1578 1579 1580 1582 1583 1584 1585 1586 1587 1588 1589 1590 1591 1591 1592 1593 1593 1594 1594 1594 1595 1595 1595 1595 1595 1595 1595 1595 1595 1594 1593 1593 1592 1590 1589 1586 1585 1585 1586 1586 1586 1586 1587 1585 1584 1583 1582 1582 1582 1581 1580 1579 1577
1496 1501 1505 1509 1512 1515 1518 1521 1525 1528 1531 1534 1536 1539 1542 1544 1547 1549 1552 1554 1556 1558 1560 1562 1564 1565 1566 1568 1569 1571 1572 1573 1575 1576 1578 1579 1580 1582 1583 1584 1585 1585 1586 1587 1588 1589 1590 1590 1591 1591 1592 1592 1593 1593 1593 1593 1593 1593 1593 1593 1592 1592 1591 1590 1589 1588 1586 1584 1583 1582 1582 1583 1582 1583 1584 1583 1581 1580 1579 1578 1578 1577 1576 1573 1572
1492 1496 1501 1505 1508 1511 1514 1517 1521 1524 1527 1530 1533 1536 1538 1541 1543 1546 1548 1551 1553 1554 1556 1558 1560 1561 1563 1565 1566 1568 1569 1570 1571 1573 1575 1576 1577 1579 1580 1581 1582 1583 1584 1585 1586 1586 1587 1588 1588 1589 1589 1590 1590 1590 1590 1590 1590 1590 1590 1590 1590 1589 1588 1587 1586 1584 1583 1581 1580 1579 1578 1578 1579 1579 1580 1580 1579 1578 1577 1575 1572 1571 1570 1568 1566
1488 1492 1496 1500 1503 1506 1510 1514 1517 1521 1524 1526 1530 1532 1535 1538 1540 1543 1545 1547 1549 1551 1553 1555 1556 1558 1560 1561 1563 1564 1565 1567 1568 1569 1571 1573 1575 1576 1577 1579 1580 1581 1581 1582 1583 1584 1584 1585 1585 1586 1586 1587 1587 1587 1587 1587 1587 1587 1587 1587 1587 1586 1585 1584 1583 1581 1580 1578 1577 1576 1575 1575 1575 1575 1576 1576 1576 1575 1574 1571 1568 1565 1564 1564 1563
1483 1488 1492 1495 1499 1503 1507 1511 1514 1517 1520 1523 1526 1529 1531 1534 1536 1539 1541 1543 1546 1548 1549 1551 1552 1554 1556 1558 1559 1561 1562 1563 1564 1566 1568 1570 1571 1573 1575 1576 1577 1578 1579 1579 1580 1581 1582 1582 1583 1583 1584 1584 1584 1585 1585 1585 1584 1584 1585 1585 1584 1583 1582 1581 1580 1578 1577 1575 1574 1573 1572 1572 1572 1572 1572 1573 1573 1572 1570 1567 1563 1561 1560 1559 1556
1479 1484 1487 1491 1495 1500 1504 1507 1510 1513 1516 1519 1522 1525 1528 1530 1533 1535 1537 1540 1542 1544 1546 1547 1549 1551 1553 1554 1555 1557 1558 1559 1561 1563 1565 1567 1569 1570 1571 1573 1574 1575 1576 1577 1577 1578 1579 1579 1580 1580 1580 1581 1581 1582 1582 1582 1581 1581 1582 1582 1581 1580 1579 1578 1577 1575 1574 1572 1572 1571 1570 1569 1571 1572 1570 1570 1570 1568 1565 1562 1559 1557 1555 1551 1548
1476 1480 1483 1487 1492 1496 1500 1503 1506 1509 1512 1515 1518 1521 1524 1527 1529 1531 1534 1536 1538 1540 1542 1543 1545 1547 1549 1550 1552 1553 1554 1555 1557 1560 1562 1564 1566 1567 1568 1570 1571 1572 1573 1574 1574 1575 1576 1576 1577 1577 1577 1578 1578 1578 1578 1578 1578 1578 1579 1579 1579 1578 1576 1575 1574 1573 1572 1570 1569 1570 1568 1567 1568 1569 1568 1568 1568 1565 1561 1558 1555 1553 1551 1547 1542
1472 1476 1480 1484 1488 1492 1496 1499 1502 1505 1508 1512 1515 1518 1521 1523 1525 1527 1530 1532 1534 1536 1537 1539 1541 1543 1545 1546 1548 1549 1550 1552 1554 1556 1558 1560 1562 1564 1565 1567 1567 1568 1569 1570 1571 1572 1573 1573 1574 1574 1574 1575 1575 1575 1575 1575 1575 1575 1575 1575 1575 1574 1573 1572 1571 1570 1569 1567 1566 1566 1566 1565 1565 1565 1566 1567 1566 1564 1561 1556 1553 1551 1548 1544 1540
1469 1473 1476 1481 1484 1488 1492 1495 1498 1501 1505 1508 1512 1514 1517 1519 1521 1523 1526 1528 1530 1532 1533 1535 1537 1539 1541 1542 1544 1545 1546 1548 1551 1553 1555 1557 1559 1561 1562 1563 1564 1565 1566 1567 1568 1568 1569 1570 1570 1571 1571 1572 1572 1572 1572 1572 1572 1572 1572 1571 1571 1571 1570 1569 1568 1567 1566 1565 1562 1561 1562 1562 1561 1561 1563 1564 1561 1561 1559 1553 1549 1549 1545 1540 1537
1466 1470 1474 1477 1481 1484 1488 1491 1494 1498 1501 1505 1508 1510 1512 1515 1517 1520 1522 1524 1526 1528 1530 1532 1533 1535 1537 1538 1540 1541 1543 1545 1547 1549 1551 1553 1555 1557 1558 1559 1560 1561 1562 1563 1564 1565 1565 1566 1567 1567 1568 1568 1568 1569 1569 1569 1569 1568 1568 1568 1567 1567 1566 1565 1565 1564 1563 1562 1559 1557 1558 1558 1556 1555 1558 1559 1557 1556 1555 1548 1545 1544 1541 1536 1532
1463 1467 1471 1474 1477 1481 1484 1487 1491 1494 1498 1501 1503 1506 1508 1511 1514 1516 1518 1520 1522 1524 1526 1528 1529 1531 1533 1535 1536 1537 1539 1541 1543 1545 1548 1550 1552 1553 1554 1555 1556 1557 1558 1559 1560 1561 1562 1562 1563 1563 1564 1564 1565 1565 1566 1566 1566 1565 1565 1564 1564 1563 1562 1561 1560 1560 1559 1558 1556 1554 1553 1552 1551 1550 1551 1553 1551 1550 1549 1545 1540 1538 1534 1529 1525
1460 1464 1467 1470 1474 1477 1480 1484 1487 1490 1494 1497 1499 1502 1504 1507 1510 1513 1515 1517 1519 1521 1523 1524 1526 1528 1529 1531 1532 1533 1535 1537 1540 1542 1544 1546 1548 1549 1550 1551 1552 1553 1554 1555 1556 1557 1558 1558 1559 1560 1560 1560 1561 1562 1562 1562 1562 1562 1561 1561 1561 1560 1558 1557 1557 1555 1554 1553 1552 1551 1549 1548 1547 1547 1547 1547 1546 1544 1543 1540 1536 1532 1528 1523 1518
1457 1460 1463 1467 1470 1473 1477 1480 1483 1487 1490 1492 1495 1498 1500 1503 1506 1509 1511 1513 1515 1517 1519 1521 1522 1524 1525 1527 1528 1529 1531 1533 1535 1538 1540 1542 1543 1544 1545 1547 1548 1549 1551 1552 1552 1553 1554 1554 1555 1556 1556 1556 1557 1558 1559 1559 1558 1558 1558 1558 1558 1557 1555 1554 1553 1551 1550 1550 1550 1548 1547 1546 1545 1545 1544 1544 1543 1541 1538 1534 1531 1528 1524 1519 1514
1453 1457 1460 1463 1467 1470 1473 1477 1480 1483 1486 1488 1491 1494 1497 1500 1502 1505 1507 1509 1511 1513 1515 1517 1518 1520 1521 1522 1524 1525 1527 1529 1531 1533 1535 1537 1539 1540 1541 1543 1544 1545 1546 1548 1548 1549 1550 1550 1551 1552 1552 1553 1554 1555 1556 1555 1555 1554 1555 1555 1554 1553 1553 1552 1550 1548 1547 1548 1548 1546 1545 1544 1543 1542 1540 1539 1538 1536 1532 1529 1526 1523 1520 1516 1511
1449 1453 1457 1461 1464 1467 1470 1473 1476 1479 1482 1485 1488 1491 1493 1496 1499 1501 1503 1505 1508 1510 1511 1513 1514 1516 1517 1519 1520 1522 1523 1525 1526 1528 1530 1532 1534 1536 1537 1538 1539 1540 1542 1543 1544 1545 1545 1546 1547 1548 1548 1549 1550 1551 1552 1551 1551 1551 1552 1552 1551 1551 1551 1549 1547 1545 1544 1545 1545 1544 1542 1541 1538 1536 1534 1533 1531 1529 1526 1524 1521 1519 1516 1512 1509
1446 1450 1455 1458 1461 1464 1467 1470 1473 1476 1479 1482 1485 1488 1490 1493 1495 1497 1499 1502 1504 1506 1507 1509 1510 1512 1514 1515 1516 1517 1519 1520 1522 1523 1526 1528 1529 1531 1532 1533 1534 1536 1538 1539 1540 1540 1541 1542 1543 1544 1545 1546 1547 1548 1548 1548 1548 1548 1548 1548 1548 1548 1548 1546 1545 1543 1541 1541 1541 1540 1538 1536 1535 1533 1531 1529 1528 1526 1525 1522 1519 1517 1513 1509 1506
1445 1449 1453 1456 1459 1462 1465 1467 1470 1473 1476 1479 1482 1484 1487 1489 1491 1493 1496 1498 1500 1502 1504 1505 1507 1508 1510 1511 1512 1513 1514 1516 1517 1519 1521 1523 1525 1526 1527 1528 1530 1532 1533 1535 1535 1536 1537 1538 1539 1540 1541 1542 1543 1544 1544 1544 1544 1544 1545 1545 1545 1545 1544 1543 1542 1542 1540 1538 1537 1536 1535 1534 1533 1531 1529 1528 1527 1525 1523 1520 1518 1515 1511 1507 1502
1444 1447 1450 1453 1456 1459 1462 1465 1467 1471 1473 1476 1478 1481 1483 1486 1488 1490 1492 1494 1496 1498 1500 1502 1503 1505 1506 1507 1508 1509 1510 1512 1513 1514 1516 1518 1520 1521 1522 1524 1526 1528 1529 1530 1531 1532 1533 1534 1536 1537 1538 1539 1540 1540 1541 1541 1541 1541 1542 1542 1542 1541 1541 1540 1539 1539 1538 1537 1535 1535 1533 1532 1530 1529 1528 1526 1525 1523 1520 1517 1515 1512 1508 1505 1500
1442 1445 1448 1451 1453 1456 1459 1462 1465 1468 1470 1472 1475 1477 1480 1482 1484 1486 1489 1491 1493 1495 1497 1498 1500 1501 1502 1503 1504 1505 1506 1508 1509 1511 1512 1514 1516 1517 1518 1520 1522 1524 1525 1525 1527 1528 1530 1531 1532 1533 1534 1535 1536 1537 1537 1538 1538 1538 1539 1539 1538 1538 1538 1537 1537 1536 1536 1535 1534 1533 1532 1530 1529 1527 1526 1524 1522 1519 1517 1514 1511 1508 1505 1502 1499
1440 1443 1445 1448 1451 1454 1457 1459 1462 1465 1467 1469 1472 1474 1476 1479 1481 1483 1485 1487 1489 1491 1493 1495 1496 1497 1498 1499 1500 1501 1502 1504 1505 1507 1508 1510 1512 1513 1515 1516 1518 1519 1520 1522 1524 1525 1526 1527 1528 1529 1531 1532 1532 1533 1534 1534 1535 1535 1535 1535 1535 1535 1535 1534 1534 1534 1533 1533 1532 1531 1530 1529 1527 1525 1524 1522 1519 1516 1514 1511 1508 1505 1501 1497 1494
1437 1440 1443 1446 1449 1452 1454 1457 1459 1462 1464 1466 1469 1471 1473 1475 1477 1479 1481 1483 1485 1487 1489 1490 1492 1493 1494 1495 1496 1498 1499 1500 1502 1503 1505 1506 1508 1509 1511 1513 1514 1516 1517 1519 1520 1522 1522 1524 1525 1526 1527 1528 1529 1530 1530 1531 1532 1532 1532 1532 1532 1532 1532 1532 1532 1532 1531 1531 1530 1529 1528 1527 1525 1524 1521 1519 1516 1513 1510 1507 1504 1501 1497 1493 1489
1435 1438 1441 1444 1447 1449 1452 1454 1456 1459 1461 1463 1465 1468 1469 1471 1473 1475 1477 1479 1481 1483 1485 1486 1488 1489 1490 1491 1493 1494 1495 1496 1498 1499 1501 1502 1504 1505 1507 1509 1510 1512 1513 1515 1516 1517 1519 1520 1521 1523 1524 1525 1526 1526 1527 1528 1529 1529 1529 1529 1529 1529 1529 1530 1530 1530 1529 1529 1528 1527 1526 1525 1523 1521 1519 1516 1513 1510 1507 1504 1500 1497 1492 1488 1483
1433 1436 1438 1441 1444 1446 1449 1451 1453 1455 1457 1459 1462 1464 1466 1467 1469 1471 1472 1475 1477 1479 1481 1482 1483 1485 1486 1488 1489 1490 1491 1492 1494 1495 1497 1498 1500 1501 1503 1505 1506 1507 1509 1510 1512 1514 1516 1517 1518 1519 1520 1521 1522 1523 1524 1525 1525 1525 1526 1526 1526 1526 1527 1527 1528 1527 1527 1527 1526 1525 1524 1522 1520 1518 1516 1514 1511 1508 1505 1502 1497 1493 1489 1485 1480
1431 1434 1437 1439 1441 1443 1446 1448 1450 1452 1454 1456 1458 1460 1461 1463 1465 1466 1468 1470 1472 1474 1476 1478 1479 1481 1483 1484 1486 1487 1487 1488 1490 1492 1493 1495 1496 1497 1499 1500 1502 1503 1505 1507 1509 1511 1512 1514 1515 1516 1517 1518 1519 1520 1521 1522 1522 1522 1523 1523 1523 1524 1525 1525 1525 1525 1525 1525 1524 1523 1522 1520 1517 1516 1514 1512 1510 1507 1504 1500 1495 1492 1488 1484 1479
1430 1433 1435 1437 1439 1441 1443 1445 1447 1449 1451 1453 1454 1456 1458 1459 1461 1462 1464 1466 1469 1471 1473 1474 1476 1478 1480 1481 1482 1483 1484 1485 1487 1489 1491 1492 1493 1494 1496 1498 1499 1501 1503 1505 1507 1508 1509 1511 1512 1513 1514 1515 1516 1517 1517 1518 1519 1520 1520 1520 1521 1522 1523 1523 1523 1523 1523 1522 1521 1520 1519 1517 1515 1514 1512 1510 1508 1505 1502 1498 1494 1491 1488 1484 1480
1428 1431 1433 1435 1436 1438 1440 1442 1444 1446 1447 1448 1450 1452 1454 1456 1457 1459 1461 1463 1465 1468 1469 1471 1473 1475 1476 1477 1478 1480 1481 1483 1485 1486 1487 1488 1490 1491 1493 1495 1497 1499 1501 1502 1504 1505 1506 1508 1509 1510 1511 1512 1513 1514 1515 1515 1516 1517 1518 1519 1519 1520 1520 1521 1521 1521 1520 1520 1519 1518 1516 1515 1513 1512 1510 1509 1507 1503 1500 1497 1493 1490 1487 1483 1480
1426 1427 1430 1432 1434 1435 1437 1439 1440 1442 1443 1445 1447 1449 1451 1453 1455 1456 1458 1460 1462 1465 1466 1468 1470 1472 1473 1474 1475 1476 1478 1480 1481 1482 1484 1485 1487 1489 1490 1492 1494 1496 1498 1499 1501 1502 1503 1505 1506 1506 1508 1509 1510 1511 1512 1513 1514 1515 1516 1517 1518 1518 1518 1518 1518 1518 1518 1517 1516 1515 1514 1513 1512 1511 1509 1507 1504 1501 1499 1496 1493 1490 1487 1484 1480
1424 1425 1427 1429 1431 1433 1435 1436 1438 1439 1440 1442 1444 1446 1448 1450 1452 1454 1456 1458 1459 1461 1463 1465 1466 1467 1469 1470 1472 1473 1475 1477 1478 1480 1481 1482 1484 1485 1487 1489 1491 1493 1495 1497 1498 1499 1500 1501 1502 1503 1505 1506 1507 1508 1510 1511 1512 1513 1514 1515 1515 1515 1516 1516 1516 1516 1516 1515 1514 1513 1512 1511 1510 1509 1508 1505 1503 1500 1497 1494 1492 1489 1487 1485 1481
1423 1424 1425 1427 1428 1430 1432 1433 1435 1436 1437 1439 1441 1442 1444 1446 1449 1451 1453 1455 1457 1458 1459 1461 1462 1463 1465 1467 1468 1470 1472 1473 1475 1476 1478 1480 1481 1483 1485 1487 1489 1491 1492 1494 1495 1496 1497 1499 1500 1501 1503 1504 1505 1506 1507 1509 1510 1511 1512 1513 1513 1513 1513 1514 1514 1514 1513 1513 1512 1511 1510 1510 1509 1508 1506 1504 1501 1499 1496 1493 1491 1489 1487 1484 1481
1422 1423 1423 1425 1427 1428 1429 1431 1432 1434 1435 1437 1438 1440 1442 1444 1446 1448 1451 1453 1454 1455 1456 1458 1459 1460 1461 1463 1464 1466 1468 1469 1471 1473 1475 1477 1478 1480 1482 1484 1486 1488 1489 1491 1492 1493 1495 1496 1497 1499 1501 1502 1503 1505 1506 1507 1508 1509 1510 1510 1511 1511 1511 1511 1511 1511 1511 1511 1511 1510 1509 1508 1508 1507 1505 1503 1501 1499 1496 1493 1491 1489 1487 1484 1481
1421 1421 1422 1423 1425 1426 1428 1429 1431 1432 1433 1435 1436 1438 1440 1442 1444 1446 1448 1450 1451 1452 1453 1455 1456 1457 1458 1460 1461 1463 1465 1467 1468 1470 1472 1474 1476 1478 1480 1482 1484 1485 1486 1488 1489 1491 1493 1495 1496 1498 1500 1501 1502 1504 1505 1506 1507 1508 1508 1509 1509 1509 1509 1509 1509 1509 1509 1509 1509 1509 1508 1507 1506 1505 1504 1502 1501 1499 1496 1494 1492 1490 1487 1485 1482
1419 1419 1421 1422 1424 1425 1426 1427 1428 1430 1431 1433 1434 1436 1437 1439 1442 1444 1446 1447 1449 1450 1451 1452 1453 1454 1456 1457 1459 1461 1463 1464 1466 1468 1470 1472 1474 1476 1478 1480 1481 1482 1484 1485 1487 1489 1491 1493 1495 1497 1499 1500 1502 1504 1505 1506 1506 1506 1507 1507 1507 1508 1507 1506 1506 1507 1507 1508 1508 1507 1507 1506 1505 1504 1503 1502 1500 1498 1496 1495 1493 1491 1488 1485 1483
1417 1418 1420 1421 1423 1424 1425 1426 1427 1428 1430 1431 1433 1434 1436 1437 1439 1441 1443 1445 1447 1448 1449 1450 1451 1452 1453 1455 1457 1458 1460 1462 1464 1466 1468 1470 1472 1474 1476 1477 1479 1480 1481 1483 1485 1487 1489 1492 1494 1496 1497 1499 1501 1502 1503 1504 1505 1505 1505 1506 1506 1506 1505 1504 1505 1505 1506 1506 1506 1506 1506 1505 1504 1503 1502 1501 1500 1498 1497 1495 1494 1492 1489 1486 1483
1417 1418 1420 1421 1422 1423 1424 1425 1426 1427 1428 1430 1431 1432 1434 1436 1438 1439 1441 1443 1445 1446 1448 1449 1449 1451 1452 1453 1454 1456 1457 1459 1461 1463 1466 1468 1470 1472 1475 1476 1478 1479 1481 1482 1484 1487 1489 1491 1493 1495 1497 1498 1499 1500 1501 1502 1503 1503 1504 1504 1504 1504 1503 1503 1503 1504 1505 1505 1505 1505 1504 1504 1503 1502 1501 1500 1499 1498 1496 1495 1494 1492 1489 1486 1484
1418 1418 1419 1420 1421 1422 1423 1424 1425 1426 1427 1429 1430 1431 1433 1435 1437 1439 1440 1442 1443 1445 1446 1447 1448 1449 1450 1452 1453 1454 1456 1458 1461 1463 1466 1468 1470 1472 1475 1477 1478 1479 1481 1482 1484 1486 1489 1490 1492 1495 1497 1498 1498 1499 1500 1501 1502 1502 1502 1502 1502 1502 1502 1502 1502 1503 1503 1503 1503 1503 1503 1502 1502 1501 1500 1499 1499 1498 1496 1495 1494 1492 1489 1487 1485
1418 1418 1419 1419 1421 1422 1423 1423 1425 1426 1427 1428 1430 1431 1432 1434 1435 1436 1438 1439 1441 1442 1444 1446 1447 1449 1450 1451 1452 1454 1457 1461 1463 1465 1467 1468 1470 1473 1476 1478 1477 1478 1480 1483 1485 1486 1488 1489 1491 1494 1496 1498 1498 1498 1499 1500 1501 1501 1500 1500 1500 1500 1500 1501 1501 1501 1501 1502 1502 1502 1501 1501 1500 1500 1499 1499 1498 1497 1496 1495 1493 1491 1489 1487 1486
1418 1418 1418 1419 1420 1421 1422 1424 1425 1426 1427 1428 1429 1430 1432 1433 1434 1435 1436 1437 1439 1440 1442 1444 1446 1448 1449 1450 1453 1456 1459 1462 1464 1466 1466 1468 1470 1472 1475 1477 1477 1478 1480 1483 1485 1486 1487 1488 1490 1493 1495 1497 1498 1498 1499 1499 1500 1499 1499 1499 1499 1499 1499 1499 1500 1500 1500 1500 1500 1500 1500 1500 1499 1499 1498 1498 1497 1496 1495 1494 1493 1491 1489 1487 1486
1418 1417 1418 1418 1419 1420 1422 1423 1425 1426 1427 1428 1429 1429 1431 1432 1433 1434 1436 1437 1438 1439 1440 1442 1446 1449 1451 1453 1455 1458 1461 1463 1465 1466 1468 1469 1471 1473 1476 1477 1478 1479 1481 1482 1484 1485 1487 1488 1490 1492 1494 1497 1498 1498 1498 1499 1499 1498 1497 1497 1497 1498 1498 1498 1498 1499 1499 1499 1499 1499 1499 1499 1498 1498 1497 1496 1496 1495 1494 1493 1492 1490 1488 1487 1485
1418 1417 1418 1418 1419 1420 1421 1422 1424 1425 1426 1427 1428 1429 1430 1432 1433 1433 1435 1436 1438 1439 1440 1442 1446 1451 1454 1456 1458 1459 1461 1462 1464 1467 1469 1470 1472 1474 1476 1477 1477 1478 1480 1482 1483 1484 1486 1488 1490 1492 1494 1496 1497 1497 1497 1497 1497 1496 1496 1496 1496 1497 1497 1497 1497 1497 1497 1497 1497 1497 1497 1497 1497 1497 1496 1495 1495 1494 1493 1492 1491 1489 1488 1486 1485
1419 1418 1418 1418 1419 1419 1420 1422 1423 1425 1426 1427 1429 1430 1431 1432 1433 1434 1435 1437 1439 1441 1443 1444 1446 1449 1452 1455 1457 1458 1459 1461 1463 1467 1469 1471 1472 1474 1476 1477 1477 1477 1479 1481 1482 1484 1486 1488 1490 1492 1493 1494 1495 1496 1496 1495 1495 1495 1495 1495 1495 1495 1496 1496 1496 1496 1496 1496 1496 1496 1496 1496 1496 1496 1495 1494 1493 1493 1492 1491 1489 1488 1487 1485 1484
1420 1419 1419 1419 1419 1419 1420 1422 1423 1424 1426 1428 1429 1430 1432 1433 1433 1434 1435 1437 1439 1441 1443 1445 1447 1449 1450 1453 1456 1458 1460 1461 1464 1467 1469 1471 1473 1474 1476 1476 1476 1477 1478 1480 1482 1483 1485 1487 1489 1490 1491 1492 1493 1494 1494 1493 1493 1493 1493 1494 1494 1494 1494 1494 1495 1495 1495 1495 1495 1495 1495 1495 1494 1494 1493 1493 1492 1491 1490 1489 1488 1486 1485 1484 1483
1421 1420 1421 1421 1420 1420 1421 1422 1423 1424 1426 1428 1429 1430 1432 1433 1434 1436 1437 1438 1439 1441 1443 1445 1447 1449 1451 1453 1456 1459 1460 1462 1465 1467 1469 1471 1472 1474 1475 1475 1476 1477 1478 1480 1481 1483 1485 1486 1488 1489 1490 1491 1491 1491 1492 1492 1492 1492 1492 1492 1492 1493 1493 1493 1493 1493 1493 1493 1493 1493 1493 1493 1493 1492 1492 1491 1490 1489 1488 1487 1486 1485 1484 1483 1482
1422 1421 1421 1421 1421 1420 1421 1422 1424 1425 1426 1428 1430 1431 1433 1434 1435 1437 1438 1440 1441 1442 1443 1445 1447 1449 1451 1454 1457 1459 1461 1463 1465 1467 1469 1470 1472 1473 1474 1475 1476 1478 1479 1481 1482 1483 1484 1485 1486 1487 1488 1489 1489 1490 1490 1490 1490 1490 1490 1491 1491 1491 1492 1492 1492 1492 1492 1492 1492 1491 1491 1491 1491 1490 1489 1489 1488 1487 1486 1485 1484 1483 1482 1481 1480
1423 1422 1422 1422 1421 1421 1422 1423 1424 1425 1427 1429 1431 1433 1434 1436 1438 1439 1441 1442 1443 1444 1445 1446 1448 1449 1451 1454 1457 1459 1461 1463 1465 1466 1468 1470 1471 1472 1474 1475 1477 1478 1480 1481 1481 1482 1483 1484 1484 1485 1486 1487 1487 1488 1488 1488 1488 1489 1489 1490 1490 1490 1491 1491 1491 1491 1491 1491 1490 1490 1489 1489 1488 1488 1487 1486 1485 1485 1484 1483 1482 1481 1480 1479 1479
1424 1423 1422 1422 1422 1422 1422 1424 1425 1427 1428 1429 1431 1433 1435 1437 1438 1440 1442 1443 1445 1446 1447 1449 1450 1451 1453 1455 1457 1460 1462 1463 1464 1465 1467 1469 1470 1472 1473 1475 1476 1477 1478 1480 1481 1481 1482 1482 1483 1484 1485 1486 1486 1486 1487 1487 1488 1488 1488 1489 1489 1489 1489 1489 1489 1489 1489 1489 1489 1488 1488 1487 1486 1485 1484 1484 1483 1483 1482 1481 1479 1478 1478 1477 1477
1425 1424 1423 1422 1422 1422 1423 1425 1426 1427 1428 1429 1431 1433 1435 1437 1438 1440 1442 1443 1445 1447 1448 1450 1452 1453 1455 1456 1458 1460 1462 1463 1464 1465 1466 1467 1469 1471 1473 1475 1476 1477 1478 1479 1480 1481 1481 1482 1483 1483 1484 1484 1485 1486 1486 1486 1487 1487 1487 1488 1487 1487 1487 1487 1487 1487 1487 1487 1487 1486 1486 1485 1484 1483 1482 1482 1481 1480 1479 1478 1477 1476 1476 1475 1474
1426 1424 1423 1422 1422 1422 1424 1425 1426 1427 1429 1430 1431 1433 1435 1437 1439 1441 1442 1444 1445 1447 1449 1450 1452 1454 1455 1457 1458 1460 1461 1462 1463 1464 1465 1467 1468 1470 1472 1474 1475 1476 1477 1478 1479 1480 1481 1482 1482 1483 1483 1483 1484 1485 1485 1485 1486 1486 1486 1486 1486 1486 1485 1485 1485 1485 1485 1484 1484 1484 1483 1482 1481 1481 1480 1479 1478 1478 1477 1476 1475 1475 1474 1473 1472